Regional Weather Roundup
Issued by NWS

Home | Current Version | Previous Version | Graphics & Text | Print | Product List | Glossary On
Versions: 1 2 3 4 5 6 7 8 9 10 11 12 13 14 15 16 17 18 19 20 21 22 23 24 25 26 27 28 29 30 31 32 33 34 35 36 37 38 39 40 41 42 43 44 45 46 47 48 49 50
000
ASUS45 KTFX 280519
RWRMT
MONTANA HOURLY WEATHER ROUNDUP
NATIONAL WEATHER SERVICE GREAT FALLS MT
1119 PM MDT FRI MAR 27 2015

NOTE: "FAIR" INDICATES FEW OR NO CLOUDS BELOW 12000 FEET WITH NO
SIGNIFICANT WEATHER AND/OR OBSTRUCTIONS TO VISIBILITY.

* THESE STATIONS ARE NOT UNDER NWS QUALITY CONTROL. THEY DO NOT
   REPORT WEATHER SUCH AS PRECIPITATION OR FOG.

MTZ001>007-043-280600-
WEST OF THE DIVIDE
CITY           SKY/WX    TMP DP  RH WIND       PRES   REMARKS
KALISPELL      CLEAR     43  39  86 W3        29.88F
MISSOULA       CLEAR     52  39  61 CALM      29.94S
BUTTE          CLEAR     43  30  60 SE6       30.06S
MULLAN PASS    PTCLDY    48  36  63 SW6       30.00F
* ESSEX        N/A       41  36  82 N/A        N/A
* EUREKA APT   PTCLDY    52  41  66 CALM       N/A
* HAMILTON APT CLEAR     54  37  53 S10       29.96S
* LIBBY APT    CLEAR     46  41  83 CALM      29.88F
* LINCOLN      N/A       45  34  65 N1         N/A
* LOOKOUT PASS N/A       46  39  77 NE1        N/A
* POLSON       N/A       55  39  55 N/A        N/A
* RONAN APT    CLEAR     52  43  72 SE5        N/A
* SEELEY LAKE  N/A       40  34  79 NE1G7      N/A
* THOMP F APT  CLEAR     49  29  46 NE3        N/A
$$

MTZ008-052>055-280600-
SOUTHWEST MONTANA
CITY           SKY/WX    TMP DP  RH WIND       PRES   REMARKS
BOZEMAN        CLEAR     48  34  59 SE8       30.01S
DILLON         CLEAR     52  28  40 S9        30.04F
* W YELLOWSTON CLEAR     35  29  79 NE1        N/A
* BOULDER HILL N/A       51  25  36 SW4        N/A
* HOMESTAKE PS N/A       42  29  60 N/A        N/A
* MONIDA PASS  N/A       43  30  60 E4         N/A
* RAYNOLDS PAS N/A       44  24  45 SE13       N/A
* WHITEHALL    N/A       54  30  40 W5         N/A
* WISE RIVER   N/A       44  31  60 SE2        N/A
$$

MTZ009>010-012-014-046-048-049-054-280600-
EAST SLOPES AND CENTRAL MONTANA
CITY           SKY/WX    TMP DP  RH WIND       PRES   REMARKS
CUT BANK       MOCLDY    55  37  51 SW13      29.86F
GREAT FALLS    MOCLDY    50  34  54 S9        29.90F
HELENA         PTCLDY    59  32  36 SW8       29.94F
MALMSTROM AFB  PTCLDY    48  34  59 S7        29.91S
* DEARBORN     N/A       60  36  41 S4         N/A
* EAST GLACIER N/A       56  38  51 W15        N/A
* MONARCH      N/A       48  23  37 S9         N/A
* PENDROY      N/A       55  30  39 SW6        N/A
* ROGERS PASS  N/A       54  31  42 SE6G17     N/A
* SAINT MARY   N/A       51  38  61 S4G9       N/A
* WHITE SULPH  N/A       47  31  54 NE7        N/A
$$

MTZ011-013-016-021-035-040-045-047-050-051-280600-
NORTH CENTRAL MONTANA
CITY           SKY/WX    TMP DP  RH WIND       PRES   REMARKS
HAVRE          MOCLDY    52  34  50 S15       29.83F
LEWISTOWN      PTCLDY    48  30  50 SE6       29.95F
* N BAR RANCH  CLEAR     48  27  44 NW3       29.98F
* CHINOOK      MOCLDY    48  36  63 CALM      29.83F
* FORT BENTON  CLEAR     48  32  54 CALM      29.88F
* CHESTER      N/A       52  33  48 N/A        N/A
* DENTON       N/A       44  29  56 S7         N/A
* GEYSER       N/A       51  31  46 SW9G14     N/A
* JUDITH GAP   N/A       51  28  41 NE4        N/A
* LOMA         N/A       52  28  40 SE1        N/A
$$

MTZ017>020-022>027-061-062-280600-
NORTHEAST MONTANA
CITY           SKY/WX    TMP DP  RH WIND       PRES   REMARKS
GLASGOW        PTCLDY    48  34  59 S6        29.85F
GLENDIVE       MOCLDY    46  36  68 E7        29.90S
JORDAN         PTCLDY    39  36  89 W5        29.88F WCI  35
SIDNEY         PTCLDY    39  32  76 CALM      29.91S
WOLF POINT     PTCLDY    45  37  74 NE10      29.88S
* BEAVER HILL  N/A       46  36  68 E12        N/A
* CIRCLE       N/A       45  37  74 N/A        N/A
* LINDSAY DVD  N/A       46  34  63 W3         N/A
* NAVAJO       N/A       40  38  93 SE4        N/A
* PLENTYWOOD A CLEAR     41  37  86 SE7       29.91S
* POPLAR APT   PTCLDY    43  37  79 NE6       29.89S
* SACO         N/A       49  34  56 S9         N/A
$$

MTZ028>042-056>058-280600-
SOUTHCENTRAL AND SOUTHEAST MONTANA
CITY           SKY/WX    TMP DP  RH WIND       PRES   REMARKS
BAKER          MOCLDY    45  36  71 E5        29.93S
BILLINGS       PTCLDY    61  30  31 SW8       29.95S
LIVINGSTON     CLEAR     61  32  34 SW15      30.00F
MILES CITY     PTCLDY    52  34  50 SE6       29.90S
* BIG TIMBER A CLEAR     57  34  42 SW7       30.00S
* FORSYTH APT  CLEAR     52  30  43 CALM      29.90F
* LAUREL APT   PTCLDY    57  30  36 N/A        N/A
* ALZADA       N/A       45  33  63 E1         N/A
* HYSHAM       N/A       58  25  28 N/A        N/A
* LAME DEER    N/A       55  27  34 N/A        N/A
* REED POINT   N/A       49  32  52 W3         N/A
* ROSCOE HILL  N/A       59  17  19 SW7G16     N/A
$$

REGIONAL REPORTS...DAKOTAS
CITY           SKY/WX    TMP DP  RH WIND       PRES   REMARKS
WILLISTON      CLEAR     43  36  76 CALM      29.91F
DICKINSON      CLEAR     36  28  73 S7        29.91S WCI  30
BEACH          CLEAR     37  36  96 SE8       29.93R WCI  31
CROSBY         FOG       32  32 100 E5        29.94S WCI  27
TIOGA          CLEAR     32  32 100 E7        29.96R WCI  25
WATFORD CITY   CLEAR     36  34  92 CALM      29.91S
BISMARCK       CLOUDY    34  30  85 E9        29.96R WCI  27
GRAND FORKS    FAIR      25  19  78 S6        30.11S WCI  18
FARGO          CLOUDY    30  21  69 S9        30.12S WCI  22
BUFFALO SD     PTCLDY    48  34  59 E7        29.90R
RAPID CITY     PTCLDY    43  32  65 NW10      29.95S
$$

REGIONAL REPORTS...WYOMING/IDAHO/WASHINGTON
CITY           SKY/WX    TMP DP  RH WIND       PRES   REMARKS
GILLETTE       CLEAR     45  34  65 NE3       30.00R
SHERIDAN       CLEAR     57  28  33 W13       29.97S
CODY           PTCLDY    61  28  29 W20G26    30.04F
YELLOWSTONE LA CLEAR     28  25  89 CALM      30.25S
SALMON         CLEAR     46  34  63 CALM      30.02R
MULLAN PASS    PTCLDY    48  36  63 SW6       30.00S
SAND POINT     PTCLDY    45  45 100 CALM      29.86F
SPOKANE        MOCLDY    57  48  72 S5        29.85F
$$

REGIONAL REPORTS...ALBERTA
CITY           SKY/WX    TMP DP  RH WIND       PRES   REMARKS
CALGARY        N/A       50  23  35 CALM      29.70F
LETHBRIDGE     CLEAR     50  37  61 S20       29.78F
MEDICINE HAT   CLOUDY    52  37  57 S6        29.74F
EDMONTON       MOCLDY    43  37  79 S7        29.57F
WATERTON GATE  N/A       55  34  45 SW9        N/A
CARDSTON       N/A       55  39  55 S9         N/A
MILK RIVER     N/A       57  39  51 SW8        N/A
$$

REGIONAL REPORTS...SASKATCHEWAN
CITY           SKY/WX    TMP DP  RH WIND       PRES   REMARKS
SWIFT CURRENT  FAIR      43  39  86 SE13      29.80F
REGINA         FAIR      34  32  92 SE12      29.91S WCI  25
VAL MARIE      N/A       39  34  82 NE6        N/A   WCI  35
ASSINIBOIA     N/A       39  36  89 SE7        N/A   WCI  34
CORONACH       N/A       37  36  96 SE6        N/A   WCI  32

$$



USA.gov is the U.S. government's official web portal to all federal, state and local government web resources and services.